Miscellaneous Local Product
Issued by NWS Hastings, NE

Home | Current Version | Previous Version | Text Only | Print | Product List | Glossary Off
Versions: 1 2 3 4 5 6 7 8 9 10 11 12 13 14 15 16 17 18 19 20 21 22 23 24 25 26 27 28 29 30 31 32 33 34 35 36 37 38 39 40 41 42 43 44 45 46 47 48 49 50

162
AXUS43 KGID 200802
MISGRI

GID CWA HOURLY WEATHER ROUNDUP
NATIONAL WEATHER SERVICE HASTINGS NE
200 AM CST MON FEB 20 2017

NOTE: "FAIR" INDICATES FEW OR NO CLOUDS BELOW 12,000 FEET WITH NO
SIGNIFICANT WEATHER AND/OR OBSTRUCTIONS TO VISIBILITY.

...SOUTH CENTRAL NEBRASKA...

CITY           SKY/WX    TMP DP  RH WIND       PRES   REMARKS
GRAND ISLAND   CLOUDY    53  52  96 S14G22    29.70F FOG
HASTINGS       CLOUDY    54  52  93 S9        29.71F FOG
KEARNEY        CLOUDY    55  52  88 S13       29.70R
ORD            CLOUDY    57  51  80 S14       29.69R
YORK           CLOUDY    55  54  94 S13       29.71F
AURORA         CLOUDY    52  51  96 S12       29.70F FOG
LEXINGTON      CLOUDY    55  51  89 SE12      29.67F FOG
HOLDREGE       CLOUDY    54  53  95 S14       29.68R FOG
HEBRON         CLOUDY    58  55  90 S18G24    29.72F

...NEBRASKA PANHANDLE...

CITY           SKY/WX    TMP DP  RH WIND       PRES   REMARKS
CHADRON        CLOUDY    47  40  76 SW8       29.63F
ALLIANCE       LGT RAIN  46  38  73 W14       29.67R
SCOTTSBLUFF    CLOUDY    46  35  65 W9        29.72R
SIDNEY         CLOUDY    49  30  48 NW25G36   29.72R

...WESTERN AND NORTH CENTRAL NEBRASKA...

CITY           SKY/WX    TMP DP  RH WIND       PRES   REMARKS
VALENTINE      PTCLDY    50  44  80 SW8       29.60R
AINSWORTH      MOCLDY    51  49  95 S9        29.62F
ONEILL         CLOUDY    57  54  90 S12       29.67R
BROKEN BOW     CLOUDY    54  51  90 S7        29.67F
IMPERIAL       PTCLDY    48  31  51 W5        29.64S
NORTH PLATTE   PTCLDY    51  47  86 SE8       29.64F
MCCOOK         MOCLDY    50  45  83 SE7       29.66F

...EASTERN NEBRASKA...

CITY           SKY/WX    TMP DP  RH WIND       PRES   REMARKS
NORFOLK        CLOUDY    52  49  89 SE9       29.70F
SO SIOUX CITY  CLOUDY    54  51  90 SE7       29.74F
TEKAMAH        CLOUDY    53  50  89 SE9       29.76F
COLUMBUS       CLOUDY    54  52  94 S14       29.73F
ALBION         CLOUDY    54  50  87 SE10      29.70S FOG
OMAHA EPPLEY   CLOUDY    59  52  77 S15       29.78F
OFFUTT AFB     PTCLDY    63  63 100 SE9       29.79F
MILLARD        CLOUDY    61  56  83 SE10      29.78S
LINCOLN        CLOUDY    60  55  83 S15       29.76S
NEBRASKA CITY  CLOUDY    55  53  94 SE7       29.80F FOG
BEATRICE       CLOUDY    61  57  88 S18G26    29.74F
FALLS CITY     CLOUDY    55  52  89 SE6       29.81F

...NORTHERN KANSAS...

CITY           SKY/WX    TMP DP  RH WIND       PRES   REMARKS
GOODLAND       CLOUDY    47  33  58 SW13      29.65F
HILL CITY      CLOUDY    53  51  93 CALM      29.68F
NORTON         SUNNY     54  46  76 S5        29.67S
SMITH CENTER   CLOUDY    54  54 100 SE13      29.69F FOG
HAYS           CLOUDY    56  55  97 S15       29.73R FOG
RUSSELL        CLOUDY    58  57  97 S18G26    29.71R FOG
CONCORDIA      CLOUDY    59  58  96 S20G26    29.73F
SALINA         LGT RAIN  61  58  90 SE16      29.76S
TOPEKA         LGT RAIN  64  56  75 SE15G23   29.80F



USA.gov is the U.S. government's official web portal to all federal, state and local government web resources and services.